Weather History for Newport Airport, OR

Change the Weather History Date:

Monday, February 25, 2013

  Actual Average Record
Temperature  
Mean Temperature 44 °F -  
Max Temperature 48 °F 50 °F 60 °F (2014)
Min Temperature 39 °F 39 °F 26 °F (2011)
Degree Days  
Heating Degree Days 22    
Moisture  
Dew Point 38 °F    
Average Humidity 78    
Maximum Humidity 100    
Minimum Humidity 62    
Precipitation  
Precipitation 0.26 in - - ()
Sea Level Pressure  
Sea Level Pressure 30.33 in    
Wind  
Wind Speed 14 mph (WNW)    
Max Wind Speed 25 mph    
Max Gust Speed 34 mph    
Visibility 6 miles    
Events Rain    
Averages and records for this station are not official NWS values.
T = Trace of Precipitation, MM = Missing Value Source: NWS Daily Summary

Daily Weather History Graph

Daily Weather History Graph

Search for Another Location

Airport:

Trip Planner

Search our weather history database for the weather conditions in past years. The results will help you decide how hot, cold, wet, or windy it might be!

Date:

Astronomy

Feb. 25, 2013 Rise Set
Actual Time 6:59 AM PST 5:59 PM PST
Civil Twilight 6:30 AM PST 6:28 PM PST
Nautical Twilight 5:56 AM PST 7:02 PM PST
Astronomical Twilight 5:23 AM PST 7:36 PM PST
Moon 6:21 PM PST 6:31 AM PST
Length of Visible Light 11h 58m
Length of Day
10h 59m
Full, 100% of the Moon is Illuminated
Feb 25
Full
Feb 25
Full
Mar 4
Last Quarter
Mar 11
New
Mar 19
First Quarter

Hourly Weather History & Observations

Time (PST) Temp. Windchill Dew Point Humidity Pressure Visibility Wind Dir Wind Speed Gust Speed Precip Events Conditions
12:15 AM 44.6 °F 35.9 °F 44.6 °F 100% 30.11 in 3.0 mi SSW 23.0 mph 34.5 mph 0.03 in Rain Rain
12:35 AM 44.6 °F 35.5 °F 44.6 °F 100% - 2.5 mi SSW 25.3 mph 31.1 mph 0.09 in Rain Rain
12:55 AM 46.4 °F 38.3 °F 44.6 °F 93% 30.11 in 2.0 mi SW 23.0 mph 28.8 mph 0.15 in Rain Heavy Rain
1:15 AM 44.6 °F 37.8 °F 44.6 °F 100% 30.14 in 5.0 mi West 15.0 mph 23.0 mph N/A Rain Light Rain
1:35 AM 44.6 °F 37.4 °F 42.8 °F 93% 30.16 in 7.0 mi West 16.1 mph 27.6 mph N/A   Overcast
1:55 AM 44.6 °F 38.8 °F 41.0 °F 87% 30.17 in 7.0 mi WNW 11.5 mph 16.1 mph N/A   Overcast
2:15 AM 44.6 °F 38.1 °F 41.0 °F 87% 30.18 in 7.0 mi West 13.8 mph 18.4 mph N/A   Overcast
2:35 AM 44.6 °F 37.8 °F 41.0 °F 87% 30.19 in 7.0 mi West 15.0 mph 24.2 mph N/A   Overcast
2:55 AM 44.6 °F 38.4 °F 41.0 °F 87% 30.19 in 7.0 mi WNW 12.7 mph 28.8 mph N/A   Light Drizzle
3:15 AM 44.6 °F 36.9 °F 39.2 °F 81% 30.20 in 7.0 mi West 18.4 mph 26.5 mph N/A   Overcast
3:35 AM 44.6 °F 38.4 °F 39.2 °F 81% 30.21 in 7.0 mi West 12.7 mph 21.9 mph N/A   Mostly Cloudy
3:55 AM 44.6 °F 38.4 °F 39.2 °F 81% 30.22 in 7.0 mi West 12.7 mph 21.9 mph N/A   Mostly Cloudy
4:15 AM 42.8 °F 36.2 °F 39.2 °F 87% 30.22 in 7.0 mi West 12.7 mph 19.6 mph 0.01 in   Mostly Cloudy
4:35 AM 44.6 °F 39.7 °F 39.2 °F 81% 30.23 in 7.0 mi West 9.2 mph 17.3 mph 0.01 in Rain Light Rain
4:55 AM 42.8 °F 36.6 °F 37.4 °F 81% 30.24 in 7.0 mi West 11.5 mph 31.1 mph 0.02 in   Overcast
5:15 AM 44.6 °F 37.2 °F 37.4 °F 76% 30.25 in 7.0 mi West 17.3 mph - N/A   Mostly Cloudy
5:35 AM 44.6 °F 38.1 °F 37.4 °F 76% 30.25 in 10.0 mi West 13.8 mph 19.6 mph N/A   Mostly Cloudy
5:55 AM 44.6 °F 39.7 °F 37.4 °F 76% 30.26 in 7.0 mi West 9.2 mph 20.7 mph N/A   Scattered Clouds
6:15 AM 42.8 °F 36.2 °F 37.4 °F 81% 30.27 in 7.0 mi West 12.7 mph 24.2 mph N/A Rain Rain
6:35 AM 44.6 °F 38.8 °F 37.4 °F 76% 30.27 in 7.0 mi West 11.5 mph 20.7 mph N/A   Overcast
6:55 AM 44.6 °F 37.2 °F 37.4 °F 76% 30.28 in 7.0 mi West 17.3 mph 23.0 mph N/A   Overcast
7:15 AM 42.8 °F 35.4 °F 37.4 °F 81% 30.29 in 7.0 mi West 15.0 mph 24.2 mph N/A   Light Drizzle
7:35 AM 42.8 °F 36.6 °F 37.4 °F 81% 30.29 in 7.0 mi West 11.5 mph 20.7 mph N/A   Overcast
7:55 AM 42.8 °F 37.0 °F 37.4 °F 81% 30.31 in 7.0 mi WNW 10.4 mph 21.9 mph N/A   Overcast
8:15 AM 42.8 °F 41.1 °F 37.4 °F 81% 30.30 in 7.0 mi West 3.5 mph - N/A   Overcast
8:35 AM 42.8 °F 37.0 °F 37.4 °F 81% 30.31 in 5.0 mi West 10.4 mph - N/A   Haze
8:55 AM 44.6 °F 38.4 °F 37.4 °F 76% 30.32 in 5.0 mi West 12.7 mph - N/A   Haze
9:15 AM 42.8 °F 37.0 °F 37.4 °F 81% - 3.0 mi West 10.4 mph - N/A Rain Light Rain
9:35 AM 44.6 °F 37.8 °F 37.4 °F 76% 30.33 in 4.0 mi West 15.0 mph 19.6 mph N/A   Haze
9:55 AM 44.6 °F 38.1 °F 37.4 °F 76% 30.34 in 5.0 mi WNW 13.8 mph 20.7 mph N/A   Haze
10:15 AM 46.4 °F 41.1 °F 37.4 °F 71% 30.34 in 5.0 mi West 11.5 mph 20.7 mph N/A   Haze
10:35 AM 44.6 °F 38.1 °F 35.6 °F 71% 30.34 in 7.0 mi West 13.8 mph 20.7 mph N/A   Mostly Cloudy
10:55 AM 44.6 °F 38.8 °F 35.6 °F 71% 30.35 in 5.0 mi West 11.5 mph 17.3 mph N/A   Haze
11:15 AM 44.6 °F 37.8 °F 35.6 °F 71% - 5.0 mi WNW 15.0 mph 19.6 mph N/A Rain Light Rain
11:35 AM 44.6 °F 40.2 °F 37.4 °F 76% 30.36 in 5.0 mi WNW 8.1 mph - N/A   Haze
11:55 AM 44.6 °F 39.2 °F 35.6 °F 71% 30.36 in 7.0 mi WNW 10.4 mph 16.1 mph N/A   Overcast
12:15 PM 46.4 °F 41.9 °F 35.6 °F 66% 30.37 in 7.0 mi West 9.2 mph - N/A   Scattered Clouds
12:35 PM 48.2 °F - 35.6 °F 62% 30.37 in 7.0 mi WNW 11.5 mph 18.4 mph N/A   Scattered Clouds
12:55 PM 46.4 °F 41.1 °F 35.6 °F 66% 30.38 in 7.0 mi West 11.5 mph 16.1 mph N/A   Mostly Cloudy
1:15 PM 46.4 °F 41.9 °F 35.6 °F 66% 30.37 in 5.0 mi West 9.2 mph - N/A   Haze
1:35 PM 46.4 °F 41.1 °F 35.6 °F 66% 30.37 in 5.0 mi NW 11.5 mph 16.1 mph N/A   Haze
1:55 PM 41.0 °F 33.5 °F 35.6 °F 81% 30.38 in 2.5 mi WNW 13.8 mph 24.2 mph 0.08 in Rain Rain
2:15 PM 44.6 °F 40.7 °F 41.0 °F 87% 30.37 in 5.0 mi West 6.9 mph - N/A   Overcast
2:35 PM 42.8 °F 35.4 °F 37.4 °F 81% 30.38 in 5.0 mi West 15.0 mph 19.6 mph N/A Rain Light Rain
2:55 PM 44.6 °F 39.7 °F 39.2 °F 81% 30.37 in 5.0 mi WSW 9.2 mph - N/A   Haze
3:15 PM 44.6 °F 39.7 °F 37.4 °F 76% 30.37 in 7.0 mi West 9.2 mph 16.1 mph N/A   Mostly Cloudy
3:35 PM 46.4 °F 41.5 °F 39.2 °F 76% 30.38 in 7.0 mi West 10.4 mph 17.3 mph N/A   Overcast
3:55 PM 44.6 °F 40.7 °F 39.2 °F 81% 30.38 in 7.0 mi WNW 6.9 mph - N/A   Mostly Cloudy
4:15 PM 46.4 °F 41.5 °F 37.4 °F 71% 30.38 in 7.0 mi WNW 10.4 mph - N/A   Mostly Cloudy
4:35 PM 44.6 °F 38.1 °F 37.4 °F 76% 30.39 in 7.0 mi NW 13.8 mph 21.9 mph N/A   Overcast
4:55 PM 44.6 °F 40.7 °F 37.4 °F 76% 30.39 in 7.0 mi NW 6.9 mph - N/A   Mostly Cloudy
5:15 PM 44.6 °F 41.4 °F 37.4 °F 76% 30.38 in 5.0 mi West 5.8 mph - N/A   Haze
5:35 PM 44.6 °F 40.2 °F 37.4 °F 76% 30.39 in 5.0 mi WNW 8.1 mph - N/A   Haze
5:55 PM 44.6 °F 40.2 °F 37.4 °F 76% 30.39 in 7.0 mi NW 8.1 mph - N/A   Overcast
6:15 PM 44.6 °F 38.4 °F 37.4 °F 76% 30.40 in 7.0 mi WNW 12.7 mph - 0.01 in   Mostly Cloudy
6:35 PM 44.6 °F 39.2 °F 35.6 °F 71% 30.40 in 7.0 mi WNW 10.4 mph - 0.01 in   Scattered Clouds
6:55 PM 44.6 °F 39.7 °F 37.4 °F 76% 30.40 in 7.0 mi NW 9.2 mph - 0.01 in   Scattered Clouds
7:15 PM 42.8 °F 38.0 °F 37.4 °F 81% 30.41 in 7.0 mi NW 8.1 mph - N/A   Mostly Cloudy
7:55 PM 44.6 °F 40.7 °F 35.6 °F 71% - 7.0 mi NW 6.9 mph - N/A   Overcast
8:15 PM 42.8 °F 39.3 °F 35.6 °F 76% 30.42 in 7.0 mi NW 5.8 mph - N/A   Overcast
8:35 PM 42.8 °F 39.3 °F 35.6 °F 76% 30.42 in 7.0 mi WNW 5.8 mph - N/A   Scattered Clouds
8:55 PM 42.8 °F 38.6 °F 35.6 °F 76% 30.42 in 7.0 mi WNW 6.9 mph - N/A   Scattered Clouds
9:15 PM 44.6 °F 41.4 °F 35.6 °F 71% 30.42 in 7.0 mi WNW 5.8 mph - N/A   Mostly Cloudy
9:35 PM 42.8 °F 37.0 °F 35.6 °F 76% 30.42 in 7.0 mi NW 10.4 mph - N/A   Mostly Cloudy
9:55 PM 42.8 °F 40.1 °F 33.8 °F 70% 30.42 in 7.0 mi NW 4.6 mph - N/A   Overcast
10:15 PM 42.8 °F 41.1 °F 33.8 °F 70% 30.42 in 7.0 mi WNW 3.5 mph - N/A   Scattered Clouds
10:35 PM 39.2 °F - 32.0 °F 75% 30.42 in 7.0 mi Calm Calm - N/A   Clear
10:55 PM 39.2 °F 35.0 °F 35.6 °F 87% 30.43 in 10.0 mi East 5.8 mph - N/A   Mostly Cloudy
11:15 PM 41.0 °F 36.4 °F 35.6 °F 81% 30.43 in 10.0 mi ESE 6.9 mph - N/A   Overcast
11:35 PM 41.0 °F 38.0 °F 35.6 °F 81% 30.43 in 10.0 mi SE 4.6 mph - N/A   Overcast
11:55 PM 39.2 °F - 35.6 °F 87% 30.43 in 10.0 mi Calm Calm - N/A   Mostly Cloudy